Hourly Data Report for January 25, 2017

All times are specified in Local Standard Time (LST). Add 1 hour to adjust for Daylight Saving Time where and when it is observed.

ST LEONARD CS
NEW BRUNSWICK

47°09'28.050" N
67°49'55.014" W
245.00 m
810I001
71019
WIY

Download Data

Hourly Data (January 2017)
Hourly Data Report for January 25, 2017
Temp Definition
°C
Dew Point Temp Definition
°C
Rel Hum Definition
%
Wind Dir Definition
10's deg

Wind Spd Definition
km/h
Visibility Definition
km
Stn Press Definition
kPa
Hmdx Definition


Wind Chill Definition


Weather Definition


TIME
00:00 -1.6 -2.5 93 7 22   97.29   -8 LegendNANA
01:00 -1.5 -2.2 95 6 19   97.10   -7 LegendNANA
02:00 -0.9 -1.8 94 7 20   96.91   -6 LegendNANA
03:00 -0.4 -1.2 95 7 18   96.87   -5 LegendNANA
04:00 -0.2 -1.0 95 7 14   96.74   -4 LegendNANA
05:00 -0.2 -0.8 96 6 8   96.83   -3 LegendNANA
06:00 0.3 -0.1 97 7 9   96.78     LegendNANA
07:00 0.0 -0.7 95 8 13   96.72   -4 LegendNANA
08:00 -0.4 -1.3 93 8 12   96.72   -4 LegendNANA
09:00 -0.3 -1.1 94 7 10   96.72   -4 LegendNANA
10:00 -0.1 -0.8 95 7 8   96.73   -3 LegendNANA
11:00 0.0 -0.7 95 5 8   96.70   -3 LegendNANA
12:00 0.0 -0.9 93 6 9   96.66   -3 LegendNANA
13:00 0.1 -0.9 93 6 11   96.57     LegendNANA
14:00 0.1 -0.8 94 3 7   96.54     LegendNANA
15:00 0.0 -0.6 96 3 6   96.54   -2 LegendNANA
16:00 0.0 -0.6 96 2 8   96.51   -3 LegendNANA
17:00 -0.3 -0.7 97 4 7   96.53   -3 LegendNANA
18:00 -0.5 -0.8 98 4 10   96.50   -4 LegendNANA
19:00 -0.8 -1.2 97   0   96.49     LegendNANA
20:00 -1.3 -1.6 97   0   96.50     LegendNANA
21:00 -1.4 -1.7 98   0   96.48     LegendNANA
22:00 -1.6 -1.8 99   0   96.44     LegendNANA
23:00 -1.8 -1.9 99   0   96.43     LegendNANA

Notes on Data Quality.

Legend

  • E = Estimated
  • M = Missing
  • NA = Not Available
  • ‡ = Partner data that is not subject to review by the National Climate Archives
Date modified: